EHI
0 0 0 0 0 0 0 0 0 0 0 0 0 0 0 0 0 0 0 0 0 0 0 0 0 0 0 0 0 0 0 0 0 0 0 0 0 0 0 0 0 0 0
0 0 0 0 0 0 0 0 0 0 0 0 0 0 0 0 0 0 0 0 0 0 0 0 0 0 0 0 0 0 0 0 0 0 0 0 0 0 0 0 0 0 0
0 0 0 0 0 0 0 0 0 0 0 0 0 0 0 0 0 0 0 0 0 0 0 0 0 0 0 0 0 0 0 0 0 0 0 0 0 0 0 0 0 0 0
0 0 0 0 0 0 0 0 0 0 0 0 0 0 0 0 0 0 0 0 0 0 0 0 0 0 0 0 0 0 0 0 0 0 0 0 0 0 0 0 0 0 0
0 0 0 0 0 0 0 0 0 0 0 0 0 0 0 0 0 0 0 0 0 0 0 0 0 0 0 0 0 0 0 0 0 0 0 0 0 0 0 0 0 0 0
0 0 0 0 0 0 0 0 0 0 0 0 0 0 0 0 0 0 0 0 0 0 0 0 0 0 0 0 0 0 0 0 0 0 0 0 0 0 0 0 0 0 0
0 0 0 0 0 0 0 0 0 0 0 0 0 0 0 0 0 0 0 0 0 0 0 0 0 0 0 0 0 0 0 0 0 0 0 0 0 0 0 0 0 0 0
0 0 0 0 0 0 0 0 0 0 0 0 0 0 0 0 0 0 0 0 0 0 0 0 0 0 0 0 0 0 0 0 0 0 0 0 0 0 0 0 0 0 0
0 0 0 0 0 0 0 0 0 0 0 0 0 0 0 0 0 0 0 0 0 0 0 0 0 0 0 0 0 0 0 0 0 0 0 0 0 0 0 0 0 0 0
0 0 0 0 0 0 0 0 0 0 0 0 0 0 0 0 0 0 0 0 0 0 0 0 0 0 0 0 0 0 0 0 0 0 0 0 0 0 0 0 0 0 0
0 0 0 0 0 0 0 0 0 0 0 0 0 0 0 0 0 0 0 0 0 0 0 0 0 0 0 0 0 0 0 0 0 0 0 0 0 0 0 0 0 0 0
0 0 0 0 0 0 0 0 0 0 0 0 0 0 0 0 0 0 0 0 0 0 0 0 0 0 0 0 0 0 0 0 0 0 0 0 0 0 0 0 0 0 0
1 0 0 0 0 0 0 0 0 0 0 0 0 0 0 0 0 0 0 0 0 0 0 0 0 0 0 0 0 0 0 0 0 0 0 0 0 0 0 0 0 0 0
2 1 0 0 0 0 0 0 0 0 0 0 0 0 0 0 0 0 0 0 0 0 0 0 0 0 0 0 0 0 0 0 0 0 0 0 0 0 0 0 0 0 0
2 1 1 0 0 0 0 0 0 0 0 0 0 0 0 0 0 0 0 0 0 0 0 0 0 0 0 0 0 0 0 0 0 0 0 0 0 0 0 0 0 0 0
3 2 1 0 0 0 0 0 0 0 0 0 0 0 0 0 0 0 0 0 0 0 0 0 0 0 0 0 0 0 0 0 0 0 0 0 0 0 0 0 0 0 0
2 2 1 0 0 0 0 0 0 0 0 0 0 0 0 0 0 0 0 0 0 0 0 0 0 0 0 0 0 0 0 0 0 0 0 0 0 0 0 0 0 0 0
1 1 0 0 0 0 0 0 0 0 0 0 0 0 0 0 0 0 0 0 0 0 0 0 0 0 0 0 0 0 0 0 0 0 0 0 0 0 0 0 0 0 0
0 0 0 0 0 0 0 0 0 0 0 0 0 0 0 0 0 0 0 0 0 0 0 0 0 0 0 0 0 0 0 0 0 0 0 0 0 0 0 0 0 0 0
0 0 0 0 0 0 0 0 0 0 0 0 0 0 0 0 0 0 0 0 0 0 0 0 0 0 0 0 0 0 0 0 0 0 0 0 0 0 0 0 0 0 0
0 0 0 0 0 0 0 0 0 0 0 0 0 0 0 0 0 0 0 0 0 0 0 0 0 0 0 0 0 0 0 0 0 0 0 0 0 0 0 0 0 0 0
0 0 0 0 0 0 0 0 0 0 0 0 0 0 0 0 0 0 0 0 0 0 0 0 0 0 0 0 0 0 0 0 0 0 0 0 0 0 0 0 0 0 0
0 0 0 0 0 0 0 0 0 0 0 0 0 0 0 0 0 0 0 0 0 0 0 0 0 0 0 0 0 0 0 0 0 0 0 0 0 0 0 0 0 0 0
0 0 0 0 0 0 0 0 0 0 0 0 0 0 0 0 0 0 0 0 0 0 0 0 0 0 0 0 0 0 0 0 0 0 0 0 0 0 0 0 0 0 0
0 0 0 0 0 0 0 0 0 0 0 0 0 0 0 0 0 0 0 0 0 0 0 0 0 0 0 0 0 0 0 0 0 0 0 0 0 0 0 0 0 0 0
0 0 0 0 0 0 0 0 0 0 0 0 0 0 0 0 0 0 0 0 0 0 0 0 0 0 0 0 0 0 0 0 0 0 0 0 0 0 0 0 0 0 0
Wind_Speed
4 3 3 3 3 3 4 4 4 5 6 6 6 6 6 6 5 5 4 10 10 11 11 11 11 12 12 12 12 12 11 11 11 11 11 11 11 11 10 10 10 10 10
4 4 3 3 3 3 3 4 5 5 5 5 6 6 6 5 5 5 4 6 11 10 10 10 10 11 11 11 11 11 11 10 10 10 10 10 10 10 10 9 9 9 9
5 4 4 3 3 3 4 4 5 5 5 5 6 5 5 5 5 5 5 4 5 9 10 9 9 10 9 10 10 10 9 9 9 9 10 9 10 10 10 10 9 8 8
5 5 4 3 3 3 4 4 4 5 4 4 4 4 4 4 5 5 4 4 4 4 7 10 9 9 8 8 9 8 8 9 9 9 9 9 9 9 9 9 9 8 8
5 5 4 3 4 4 3 4 4 4 5 4 4 4 4 3 3 4 4 4 4 4 4 7 9 8 8 7 7 7 8 8 8 8 8 7 8 8 9 8 9 8 8
5 5 4 4 4 4 3 4 5 4 4 5 5 5 4 3 3 3 3 3 3 4 4 4 4 5 7 7 6 7 6 6 6 7 7 7 7 7 7 8 7 8 7
5 5 4 4 4 4 5 5 5 6 4 4 4 3 3 3 3 2 2 2 3 3 3 3 2 2 3 6 6 5 5 5 5 5 5 5 5 6 6 6 7 7 8
4 5 6 5 4 4 5 6 5 4 2 2 4 4 2 2 2 2 1 1 1 2 2 2 2 2 2 2 3 5 4 4 3 3 4 4 4 4 4 5 5 6 7
4 4 5 5 5 5 5 5 6 6 5 2 2 4 4 4 1 1 1 1 1 1 1 1 2 1 2 1 1 3 4 4 3 2 2 2 2 3 3 3 4 5 5
4 4 5 5 5 4 5 5 4 4 6 4 1 1 2 4 4 1 1 1 0 0 0 0 0 1 1 1 1 2 3 3 3 3 2 2 2 3 3 3 3 3 4
3 4 4 5 5 4 5 5 4 4 4 5 3 2 2 1 2 3 2 1 1 1 1 1 1 0 0 0 1 1 2 3 3 3 3 3 3 3 3 3 3 3 3
2 3 4 4 4 4 5 5 5 5 4 4 3 3 4 3 3 3 3 2 1 2 1 1 1 1 1 1 1 2 2 2 3 4 4 4 4 4 4 4 3 3 4
2 3 3 4 4 4 4 4 5 5 5 5 5 3 3 3 3 3 4 2 1 1 1 1 2 1 1 1 2 2 3 3 3 4 4 4 4 4 4 4 4 5 4
4 4 4 4 4 4 4 4 4 4 4 5 5 4 3 3 3 4 4 4 2 1 2 3 2 2 1 1 2 2 2 3 3 4 4 4 4 4 4 5 5 5 5
3 4 4 4 4 4 4 4 4 4 4 4 4 4 3 3 3 3 3 5 5 3 3 3 2 2 1 1 2 1 1 3 4 4 3 3 4 4 4 5 5 5 5
4 4 4 4 4 4 4 4 3 4 5 4 4 4 3 2 2 2 3 3 3 4 3 2 2 2 1 1 2 0 1 3 3 3 3 3 3 4 4 5 5 5 5
4 5 5 5 5 5 4 4 4 5 5 4 4 5 4 4 3 3 3 3 3 3 3 2 1 1 1 1 1 0 0 1 1 3 3 3 4 4 4 4 5 5 5
5 5 5 4 5 5 5 5 5 5 6 6 5 5 4 4 4 4 3 4 3 3 4 3 1 1 1 2 1 0 1 1 1 3 4 4 4 4 4 4 4 5 5
4 4 5 5 5 5 5 5 5 5 5 5 5 6 5 5 4 4 4 4 3 2 2 3 3 1 1 1 0 1 1 1 2 2 3 4 5 5 4 4 5 5 6
4 4 5 5 5 5 4 4 4 4 4 4 4 5 5 6 6 5 4 5 4 3 3 3 3 2 1 1 1 1 1 1 1 2 3 3 4 5 5 5 6 6 6
4 4 4 4 4 4 4 4 4 4 4 4 4 4 4 5 7 5 4 5 5 4 4 3 3 2 2 2 2 2 1 1 1 1 2 2 2 2 3 5 6 6 7
3 3 4 4 4 3 5 6 5 4 4 5 4 3 3 4 5 6 7 7 7 7 6 5 4 5 4 3 2 2 2 1 2 1 1 2 1 2 2 2 5 7 7
3 3 4 4 4 4 5 6 6 4 4 4 4 4 3 3 4 3 5 5 5 7 7 6 6 6 5 5 4 4 3 3 3 2 1 2 1 2 2 3 6 6 7
3 3 4 4 3 4 5 6 5 4 3 4 4 4 4 4 4 4 4 3 2 2 3 3 4 5 4 4 5 4 4 2 1 1 1 2 1 2 3 2 5 6 7
2 2 3 4 4 4 5 5 4 3 3 3 3 3 4 4 6 6 4 4 3 1 1 2 3 3 3 4 4 3 3 2 1 1 1 1 1 2 2 2 3 6 7
2 2 2 2 3 3 4 5 4 3 3 2 2 2 4 4 6 6 4 5 4 3 2 2 1 1 0 1 3 3 4 4 2 2 1 1 1 0 2 2 2 2 3
Wind_Direction
116 106 100 95 90 91 95 92 88 87 83 77 73 75 74 69 62 55 51 64 77 83 87 89 90 89 87 84 82 80 77 73 71 70 69 67 63 62 60 60 62 61 58
123 120 111 103 101 100 96 98 98 95 87 84 75 69 70 71 64 59 51 49 57 70 82 87 87 88 87 85 82 79 75 72 70 69 68 68 65 61 58 57 57 58 56
125 124 121 116 114 109 106 101 95 91 89 84 75 68 68 71 70 59 51 45 41 51 65 77 82 85 87 85 83 80 76 72 71 70 69 65 62 59 57 54 53 55 54
130 124 124 125 120 113 113 112 106 100 91 86 76 63 61 69 71 65 57 49 41 35 46 61 70 77 85 88 86 83 79 75 70 70 68 62 59 58 57 53 49 49 49
136 132 131 131 126 118 116 120 110 112 108 95 85 67 54 59 63 70 66 57 51 45 36 49 56 61 70 81 85 82 80 74 68 65 64 61 56 54 51 50 49 46 45
140 134 133 132 132 127 122 123 118 109 115 115 94 68 49 46 51 59 65 58 55 55 49 46 38 44 56 64 71 74 75 74 67 62 60 56 51 49 47 43 44 44 43
146 142 141 141 143 140 142 136 129 118 110 120 98 74 36 35 43 35 45 59 56 52 59 56 44 35 36 50 52 57 56 62 62 60 53 48 44 42 42 38 36 37 36
155 155 151 153 150 141 143 143 140 136 141 154 130 123 96 11 0 10 16 74 59 44 56 55 55 50 36 25 33 44 38 38 46 53 44 34 32 30 30 31 32 31 27
166 161 158 156 154 152 160 163 160 153 157 184 152 144 151 186 204 329 351 44 82 69 47 45 55 47 41 31 16 21 26 17 12 16 14 9 14 16 15 16 23 24 18
167 164 161 160 162 162 166 174 171 165 158 167 171 128 144 153 152 168 301 332 3 152 202 43 39 28 39 21 0 22 17 2 352 339 328 330 340 343 346 352 4 4 5
173 170 168 163 167 171 173 174 170 173 172 171 168 152 120 97 123 148 194 251 313 272 236 220 222 234 348 357 288 304 354 340 328 320 317 323 325 320 315 318 334 341 348
181 183 175 172 172 176 180 181 179 179 180 175 171 169 165 164 171 160 173 196 230 272 263 232 221 225 238 245 260 289 309 308 312 311 307 315 325 328 321 313 317 327 332
194 202 189 185 182 184 185 181 180 186 185 179 180 184 180 179 161 154 152 162 197 271 284 263 238 229 236 241 251 280 279 285 294 297 298 306 316 320 323 320 317 321 321
199 197 193 194 189 184 182 180 182 191 184 186 185 181 181 185 170 163 158 151 152 257 261 258 268 232 239 234 249 278 273 279 283 293 296 304 321 329 328 323 320 320 321
193 190 191 191 188 184 182 179 189 189 185 188 184 182 186 190 178 169 161 161 160 184 229 237 243 255 248 228 247 265 279 278 278 283 293 307 318 321 320 320 321 322 322
187 183 190 190 187 184 182 179 190 187 184 189 181 179 191 186 175 171 171 169 165 166 200 224 229 244 236 246 246 281 276 292 291 283 286 294 297 305 308 308 309 310 310
185 185 192 187 186 185 184 184 193 188 187 188 185 185 196 179 176 180 174 168 168 155 184 233 251 228 199 211 265 316 275 283 296 300 301 289 286 291 299 299 301 303 308
190 186 189 189 187 186 186 188 194 191 189 191 191 185 194 182 183 184 181 182 182 175 170 198 224 208 224 215 210 254 307 303 279 290 305 303 303 304 303 299 302 306 305
193 182 183 191 190 191 192 196 196 195 195 194 189 188 192 180 192 191 188 188 184 182 174 178 200 198 204 205 180 308 317 325 304 289 299 302 308 311 312 316 315 312 310
191 186 190 194 191 193 193 194 196 193 193 195 194 194 193 188 194 192 193 193 177 170 166 170 184 192 197 198 170 196 290 318 305 312 300 300 311 322 324 322 320 318 313
195 191 187 188 189 192 193 190 192 190 191 192 196 200 198 197 199 198 195 186 175 174 173 175 188 196 201 189 200 197 219 284 288 273 299 304 319 332 330 321 319 315 311
194 187 186 185 191 204 205 203 193 188 189 191 195 196 202 203 206 214 217 205 190 183 184 186 200 203 212 209 200 196 196 211 264 259 238 287 289 295 302 298 304 310 313
194 191 190 187 193 203 206 209 206 184 186 191 190 185 196 204 204 197 216 217 213 216 209 198 196 206 205 201 192 199 202 209 235 228 185 273 275 282 290 297 301 312 317
197 194 192 190 192 202 209 207 201 178 180 190 191 189 188 187 192 185 174 172 183 212 222 212 206 210 204 192 194 198 192 193 255 240 176 251 268 275 293 298 297 309 319
192 194 190 191 192 199 205 201 193 166 175 188 187 183 182 180 195 193 168 164 169 193 228 218 221 222 214 202 184 155 166 170 218 237 216 219 253 285 291 284 294 313 324
182 184 189 190 191 196 204 195 187 166 173 178 173 182 198 194 198 197 173 167 180 191 168 145 140 139 160 204 221 205 191 189 195 229 217 188 216 297 303 291 293 312 319